SM6PGP-2 Weather Reports


time (UTC)temp
C
wind
direction
speed
KPH
gust
KPH
rain 1hr
cm
rain 24hr
cm
rain mn
cm
humidity
%
barometer
mb
20260507035519 -3 45 0.0 3.2 0.00 0.00 0.08 72 1012.2
20260507035013 -3 0 3.2 3.2 0.00 0.00 0.08 72 1012.2
20260507034508 -3 45 0.0 1.6 0.00 0.00 0.08 71 1012.2
20260507034003 -3 45 0.0 1.6 0.00 0.00 0.08 72 1012.1
20260507033459 -3 0 1.6 3.2 0.00 0.00 0.08 72 1012.2
20260507032953 -3 0 1.6 4.8 0.00 0.00 0.08 72 1012.1
20260507032447 -3 0 3.2 3.2 0.00 0.00 0.08 71 1012.1
20260507031942 -3 45 1.6 1.6 0.00 0.00 0.08 71 1012.1
20260507031437 -3 45 1.6 4.8 0.00 0.00 0.08 71 1012.1
20260507030932 -3 0 4.8 4.8 0.00 0.00 0.08 71 1012.1
20260507030427 -3 45 1.6 3.2 0.00 0.00 0.05 70 1012.1
20260507025921 -3 45 1.6 1.6 0.00 0.00 0.05 71 1012.1
20260507025416 -3 45 0.0 1.6 0.00 0.00 0.05 70 1012.0
20260507024911 -3 45 1.6 1.6 0.00 0.00 0.05 70 1012.1
20260507024406 -3 45 0.0 4.8 0.00 0.00 0.05 70 1012.0
20260507023901 -3 0 3.2 4.8 0.00 0.00 0.05 70 1011.9
20260507023355 -3 0 1.6 1.6 0.00 0.00 0.05 70 1011.8
20260507022850 -3 0 0.0 3.2 0.00 0.00 0.05 69 1011.7
20260507022345 -3 45 0.0 0.0 0.00 0.00 0.05 69 1011.7
20260507021840 -3 45 0.0 0.0 0.00 0.00 0.05 69 1011.8
20260507021335 -2 45 0.0 0.0 0.00 0.00 0.03 69 1011.8
20260507020829 -2 45 0.0 0.0 0.00 0.00 0.03 68 1011.8
20260507020324 -2 45 0.0 0.0 0.00 0.00 0.03 69 1011.7
20260507015819 -2 45 0.0 0.0 0.00 0.00 0.03 68 1011.8
20260507015314 -2 45 0.0 0.0 0.00 0.00 0.03 69 1011.8
20260507014809 -2 45 0.0 0.0 0.00 0.00 0.03 69 1011.8
20260507014303 -2 45 0.0 3.2 0.00 0.00 0.03 69 1011.9
20260507013758 -2 45 1.6 3.2 0.00 0.00 0.03 69 1011.7
20260507013253 -2 9 3.2 3.2 0.00 0.00 0.03 69 1011.7
20260507012748 -2 0 1.6 3.2 0.00 0.00 0.03 69 1011.7
20260507012243 -2 0 4.8 6.4 0.00 0.00 0.03 68 1011.9
20260507011737 -2 45 1.6 3.2 0.00 0.00 0.03 67 1011.7
20260507011232 -2 0 1.6 3.2 0.00 0.00 0.00 67 1011.6
20260507010727 -2 0 0.0 0.0 0.00 0.00 0.00 67 1011.6
20260507010222 -2 45 0.0 0.0 0.00 0.00 0.00 67 1011.6
20260507005717 -2 45 0.0 0.0 0.00 0.00 0.00 66 1011.5
20260507005211 -2 45 0.0 0.0 0.00 0.00 0.00 66 1011.5
20260507004706 -2 45 0.0 1.6 0.00 0.00 0.00 66 1011.5
20260507004201 -2 45 0.0 3.2 0.00 0.00 0.00 66 1011.6
20260507003656 -2 0 3.2 4.8 0.00 0.00 0.00 66 1011.5
20260507003151 -2 0 0.0 1.6 0.00 0.00 0.00 65 1011.3
20260507002645 -1 45 0.0 0.0 0.00 0.00 0.00 66 1011.4
20260507002140 -1 90 0.0 0.0 0.00 0.00 0.00 65 1011.4
20260507001635 -1 90 0.0 1.6 0.00 0.00 0.00 65 1011.4
20260507001130 -1 0 1.6 3.2 0.00 0.00 0.00 64 1011.4
20260507000625 -1 0 3.2 4.8 0.00 0.00 0.00 64 1011.3
20260507000119 -1 45 1.6 1.6 0.00 0.00 0.00 63 1011.3
20260506235614 -1 45 0.0 0.0 0.00 0.00 0.00 63 1011.2
20260506235109 -1 45 0.0 0.0 0.00 0.00 0.00 63 1011.3
20260506234604 -1 0 0.0 0.0 0.00 0.00 0.00 63 1011.3
20260506234059 -1 0 0.0 0.0 0.00 0.00 0.00 63 1011.3
20260506233553 -1 0 0.0 3.2 0.00 0.00 0.00 62 1011.2
20260506233048 -1 45 0.0 0.0 0.00 0.00 0.00 62 1011.2
20260506232543 -1 45 0.0 0.0 0.00 0.00 0.00 61 1011.2
20260506232038 -1 90 0.0 0.0 0.00 0.00 0.00 60 1011.3
20260506231533 -1 90 0.0 0.0 0.00 0.00 0.00 60 1011.3
20260506231027 -1 90 0.0 0.0 0.00 0.00 0.00 59 1011.3
20260506230522 0 90 0.0 0.0 0.00 0.00 0.00 59 1011.2
20260506230017 0 90 0.0 0.0 0.00 0.00 0.00 59 1011.2
20260506225512 0 135 0.0 0.0 0.00 0.00 0.00 58 1011.1
20260506225007 0 135 0.0 0.0 0.00 0.00 0.00 58 1011.1
20260506224501 0 0 0.0 0.0 0.00 0.00 0.00 58 1011.0
20260506223956 0 0 3.2 3.2 0.00 0.00 0.00 57 1011.0
20260506223451 0 0 1.6 3.2 0.00 0.00 0.00 57 1010.9
20260506222946 0 0 1.6 1.6 0.00 0.00 0.00 56 1010.9
20260506222441 0 0 1.6 1.6 0.00 0.00 0.00 56 1010.9
20260506221935 0 45 0.0 0.0 0.00 0.00 0.00 55 1010.8
20260506221430 0 45 0.0 0.0 0.00 0.00 0.00 55 1010.8
20260506220925 0 45 0.0 0.0 0.00 0.00 0.00 55 1010.8
20260506220420 0 45 0.0 0.0 0.00 0.00 0.00 54 1010.7
20260506215915 0 45 0.0 0.0 0.00 0.00 0.00 53 1010.7
20260506215409 0 45 0.0 0.0 0.00 0.00 0.00 53 1010.7
20260506214904 0 180 0.0 0.0 0.00 0.00 0.00 51 1010.6
20260506214359 0 180 0.0 0.0 0.00 0.00 0.00 51 1010.6
20260506213854 1 180 0.0 0.0 0.00 0.00 0.00 51 1010.5
20260506213349 1 180 0.0 0.0 0.00 0.00 0.00 50 1010.5
20260506212843 1 180 0.0 0.0 0.00 0.00 0.00 50 1010.5
20260506212338 1 180 0.0 1.6 0.00 0.00 0.00 49 1010.5
20260506211833 1 180 1.6 1.6 0.00 0.00 0.00 48 1010.4
20260506211328 1 180 1.6 3.2 0.00 0.00 0.00 48 1010.4
20260506210823 2 135 0.0 0.0 0.00 0.00 0.00 47 1010.3
20260506210317 2 135 0.0 0.0 0.00 0.00 0.00 47 1010.2
20260506205812 2 135 1.6 3.2 0.00 0.00 0.00 47 1010.2
20260506205307 2 135 3.2 3.2 0.00 0.00 0.00 46 1010.2
20260506204802 2 135 1.6 1.6 0.00 0.00 0.00 46 1010.1
20260506204257 2 135 1.6 1.6 0.00 0.00 0.00 45 1010.2
20260506203751 2 135 1.6 1.6 0.00 0.00 0.00 44 1010.2
20260506203246 2 135 1.6 1.6 0.00 0.00 0.00 43 1010.1
20260506202741 2 135 0.0 0.0 0.00 0.00 0.00 42 1010.1
20260506202236 3 90 0.0 0.0 0.00 0.00 0.00 41 1010.0
20260506201731 3 90 0.0 0.0 0.00 0.00 0.00 41 1010.2
20260506201225 3 90 0.0 0.0 0.00 0.00 0.00 39 1010.1
20260506200720 3 45 0.0 0.0 0.00 0.00 0.00 38 1010.1
20260506200215 3 45 0.0 0.0 0.00 0.00 0.00 37 1010.1
20260506195710 4 90 0.0 0.0 0.00 0.00 0.00 37 1010.1
20260506195205 4 45 0.0 1.6 0.00 0.00 0.00 36 1010.2
20260506194659 4 45 0.0 1.6 0.00 0.00 0.00 35 1010.0
20260506194154 5 45 0.0 0.0 0.00 0.00 0.00 35 1010.0
20260506193649 5 45 0.0 0.0 0.00 0.00 0.00 34 1010.0
20260506193144 5 45 0.0 0.0 0.00 0.00 0.00 32 1010.0
20260506192639 6 67 0.0 6.4 0.00 0.00 0.00 32 1010.0
20260506192133 6 0 1.6 3.2 0.00 0.00 0.00 32 1010.0
20260506191628 6 0 1.6 3.2 0.00 0.00 0.00 31 1010.0
20260506191123 6 0 3.2 8.0 0.00 0.00 0.43 32 1009.9
20260506190618 7 0 6.4 6.4 0.00 0.00 0.43 32 1009.8
20260506190113 7 355 3.2 11.3 0.00 0.00 0.43 32 1009.8
20260506185607 7 310 1.6 4.8 0.00 0.00 0.43 31 1009.8
20260506185102 8 0 1.6 4.8 0.00 0.00 0.43 30 1009.7
20260506184557 8 0 6.4 6.4 0.00 0.00 0.43 30 1009.5
20260506184052 8 45 0.0 11.3 0.00 0.00 0.43 29 1009.5
20260506183547 8 333 6.4 14.5 0.00 0.00 0.43 29 1009.5
20260506183041 9 346 8.0 8.0 0.00 0.00 0.43 30 1009.5
20260506182536 9 319 3.2 8.0 0.00 0.00 0.43 30 1009.5
20260506182031 9 324 4.8 6.4 0.00 0.00 0.43 29 1009.4
20260506181526 10 342 6.4 9.7 0.00 0.00 0.43 29 1009.5
20260506181021 10 90 6.4 11.3 0.00 0.00 0.43 29 1009.3
20260506180515 10 319 6.4 9.7 0.00 0.00 0.43 26 1009.3
20260506180010 10 0 6.4 9.7 0.00 0.00 0.43 25 1009.4
20260506175505 10 288 6.4 12.9 0.00 0.00 0.43 24 1009.3
20260506175000 11 324 1.6 11.3 0.00 0.00 0.43 21 1009.3
20260506174455 11 315 12.9 12.9 0.00 0.00 0.43 20 1009.2
20260506173949 11 31 3.2 11.3 0.00 0.00 0.43 19 1009.2
20260506173444 12 319 3.2 12.9 0.00 0.00 0.43 17 1009.0
20260506172939 12 9 8.0 14.5 0.00 0.00 0.43 17 1009.2
20260506172434 12 355 9.7 12.9 0.00 0.00 0.43 17 1009.3
20260506171929 12 0 4.8 4.8 0.00 0.00 0.43 16 1009.1
20260506171423 12 40 3.2 8.0 0.00 0.00 0.43 16 1009.1
20260506170918 12 324 1.6 6.4 0.00 0.00 0.43 14 1009.1
20260506170413 12 324 3.2 12.9 0.00 0.00 0.43 15 1009.1
20260506165908 12 310 3.2 9.7 0.00 0.00 0.43 13 1009.1
20260506165403 12 324 11.3 12.9 0.00 0.00 0.43 12 1009.0
20260506164857 12 346 6.4 14.5 0.00 0.00 0.43 13 1009.0
20260506164352 12 306 4.8 9.7 0.00 0.00 0.43 13 1009.1
20260506163847 12 270 9.7 9.7 0.00 0.00 0.43 9 1009.1
20260506163342 13 265 16.1 16.1 0.00 0.00 0.43 10 1009.1
20260506162837 13 315 6.4 14.5 0.00 0.00 0.43 11 1009.1
20260506162331 13 342 9.7 14.5 0.00 0.00 0.43 10 1009.1
20260506161826 13 351 6.4 11.3 0.00 0.00 0.43 11 1009.1
20260506161321 13 315 1.6 8.0 0.00 0.00 0.43 11 1009.1
20260506160816 13 351 4.8 19.3 0.00 0.00 0.43 10 1009.1
20260506160311 13 292 14.5 22.5 0.00 0.00 0.43 10 1009.0
20260506155805 13 27 3.2 12.9 0.00 0.00 0.43 9 1009.0
20260506155300 13 288 4.8 11.3 0.00 0.00 0.43 10 1008.9
20260506154755 13 252 6.4 14.5 0.00 0.00 0.43 8 1009.0
20260506154250 13 324 8.0 12.9 0.00 0.00 0.43 8 1009.0
20260506153745 13 328 4.8 12.9 0.00 0.00 0.43 8 1009.2
20260506153239 13 0 1.6 14.5 0.00 0.00 0.43 9 1009.1
20260506152734 13 27 1.6 12.9 0.00 0.00 0.43 8 1009.1
20260506152229 13 236 6.4 14.5 0.00 0.00 0.43 6 1009.1
20260506151724 13 94 1.6 16.1 0.00 0.00 0.43 7 1009.1
20260506151219 13 292 3.2 17.7 0.00 0.00 0.43 8 1009.2
20260506150713 13 270 17.7 19.3 0.00 0.00 0.43 6 1009.1
20260506150208 14 297 9.7 20.9 0.00 0.00 0.43 3 1009.1
20260506145703 14 297 11.3 12.9 0.00 0.00 0.43 6 1009.1
20260506145158 14 297 12.9 12.9 0.00 0.00 0.43 4 1009.2
20260506144653 14 270 11.3 19.3 0.00 0.00 0.43 5 1009.1
20260506144147 14 292 11.3 12.9 0.00 0.00 0.43 6 1009.2
20260506143642 14 288 16.1 16.1 0.00 0.00 0.43 9 1009.3
20260506143137 14 328 6.4 14.5 0.00 0.00 0.43 10 1009.2
20260506142632 13 297 12.9 19.3 0.00 0.00 0.43 8 1009.2
20260506142127 13 306 12.9 16.1 0.00 0.00 0.43 7 1009.2
20260506141621 13 324 9.7 20.9 0.00 0.00 0.43 5 1009.2
20260506141116 13 22 8.0 20.9 0.00 0.00 0.43 6 1009.3
20260506140611 13 351 6.4 22.5 0.00 0.00 0.43 8 1009.3
20260506140106 14 270 8.0 25.7 0.00 0.00 0.43 7 1009.4
20260506135601 14 270 12.9 14.5 0.00 0.00 0.43 8 1009.3
20260506135056 14 306 6.4 16.1 0.00 0.00 0.43 6 1009.4
20260506134550 14 315 6.4 12.9 0.00 0.00 0.43 8 1009.4
20260506134045 14 315 9.7 19.3 0.00 0.00 0.43 6 1009.4
20260506133540 14 0 3.2 11.3 0.00 0.00 0.43 8 1009.3
20260506133035 14 270 16.1 16.1 0.00 0.00 0.43 9 1009.4
20260506132530 14 270 8.0 12.9 0.00 0.00 0.43 10 1009.4
20260506132024 14 319 11.3 11.3 0.00 0.00 0.43 9 1009.4
20260506131519 14 261 12.9 20.9 0.00 0.00 0.43 10 1009.3
20260506131014 14 292 19.3 22.5 0.00 0.00 0.43 11 1009.3
20260506130509 14 306 16.1 20.9 0.00 0.00 0.43 12 1009.4
20260506130004 14 297 8.0 14.5 0.00 0.00 0.43 9 1009.4
20260506125458 13 315 11.3 17.7 0.00 0.00 0.43 10 1009.4
20260506124953 13 337 8.0 27.4 0.00 0.00 0.43 13 1009.4
20260506124448 13 306 9.7 24.1 0.00 0.00 0.43 15 1009.4
20260506123943 13 270 17.7 24.1 0.00 0.00 0.43 13 1009.4
20260506123438 13 265 29.0 29.0 0.00 0.00 0.43 11 1009.4
20260506122932 13 306 8.0 22.5 0.00 0.00 0.43 11 1009.5
20260506122427 13 274 9.7 25.7 0.00 0.00 0.43 10 1009.5
20260506121414 13 319 6.4 20.9 0.00 0.00 0.43 10 1009.5
20260506120909 13 288 11.3 22.5 0.00 0.00 0.43 8 1009.5
20260506120403 13 270 9.7 17.7 0.00 0.00 0.43 7 1009.5
20260506115858 13 283 20.9 20.9 0.00 0.00 0.43 10 1009.6
20260506115353 13 306 6.4 14.5 0.00 0.00 0.43 11 1009.5
20260506114848 13 351 11.3 19.3 0.00 0.00 0.43 11 1009.5
20260506114343 13 297 8.0 24.1 0.00 0.00 0.43 10 1009.5
20260506113837 13 310 6.4 27.4 0.00 0.00 0.43 10 1009.5
20260506113332 13 265 25.7 25.7 0.00 0.00 0.43 13 1009.5
20260506112827 14 270 17.7 24.1 0.00 0.00 0.43 11 1009.6
20260506112322 13 306 11.3 16.1 0.00 0.00 0.43 12 1009.5
20260506111817 13 0 9.7 19.3 0.00 0.00 0.43 13 1009.5
20260506111311 13 288 14.5 17.7 0.00 0.00 0.43 10 1009.5
20260506110806 13 265 16.1 17.7 0.00 0.00 0.43 12 1009.5
20260506110301 13 288 9.7 27.4 0.00 0.00 0.43 13 1009.5
20260506105756 13 261 17.7 17.7 0.00 0.00 0.43 13 1009.5
20260506105251 13 342 9.7 11.3 0.00 0.00 0.43 12 1009.5
20260506104746 13 229 20.9 24.1 0.00 0.00 0.43 11 1009.5
20260506104240 13 270 19.3 29.0 0.00 0.00 0.43 10 1009.6
20260506103735 14 45 4.8 22.5 0.00 0.00 0.43 10 1009.6
20260506103230 14 265 11.3 22.5 0.00 0.00 0.43 10 1009.6
20260506102725 15 225 12.9 16.1 0.00 0.00 0.43 7 1009.7
20260506102220 15 180 11.3 17.7 0.00 0.00 0.43 6 1009.6
20260506101714 16 139 24.1 25.7 0.00 0.00 0.43 6 1009.5
20260506101209 16 135 6.4 8.0 0.00 0.00 0.43 9 1009.7
20260506100704 15 315 8.0 14.5 0.00 0.00 0.43 7 1009.8
20260506100159 15 135 1.6 6.4 0.00 0.00 0.43 9 1009.8
20260506095653 14 153 3.2 11.3 0.00 0.00 0.43 9 1009.8
20260506095148 14 157 4.8 12.9 0.00 0.00 0.43 10 1009.8
20260506094643 14 225 11.3 16.1 0.00 0.00 0.41 8 1009.9
20260506094138 15 144 14.5 14.5 0.00 0.00 0.41 9 1009.9
20260506093633 15 175 6.4 16.1 0.00 0.00 0.41 10 1009.9
20260506093128 14 90 3.2 6.4 0.00 0.00 0.41 10 1009.9
20260506092622 13 45 8.0 22.5 0.00 0.00 0.41 9 1009.9
20260506092117 14 90 14.5 14.5 0.00 0.00 0.41 12 1010.0
20260506091612 14 90 9.7 19.3 0.00 0.00 0.41 10 1010.0
20260506091107 14 135 4.8 8.0 0.00 0.00 0.41 13 1009.9
20260506090602 13 189 3.2 8.0 0.00 0.00 0.41 12 1009.9
20260506090056 13 81 3.2 20.9 0.00 0.00 0.41 11 1009.9
20260506085551 13 0 6.4 14.5 0.00 0.00 0.41 9 1009.9
20260506085046 13 90 3.2 17.7 0.00 0.00 0.41 11 1010.0
20260506084036 13 90 1.6 14.5 0.00 0.00 0.41 13 1010.0
20260506083530 13 135 12.9 16.1 0.00 0.00 0.41 15 1010.0
20260506083025 12 94 11.3 14.5 0.00 0.00 0.41 19 1010.0
20260506082520 12 90 16.1 16.1 0.00 0.00 0.41 19 1010.0
20260506082015 12 108 6.4 12.9 0.00 0.00 0.41 19 1010.0
20260506081510 12 90 9.7 22.5 0.00 0.00 0.28 19 1010.1
20260506081005 12 90 3.2 16.1 0.00 0.00 0.28 21 1010.1
20260506080459 12 135 8.0 19.3 0.00 0.00 0.28 24 1010.1
20260506073428 10 90 19.3 19.3 0.00 0.00 0.18 30 1010.1
20260506072923 10 49 9.7 17.7 0.00 0.00 0.18 31 1010.1
20260506072418 10 90 4.8 16.1 0.00 0.00 0.18 32 1010.1
20260506071912 10 121 14.5 19.3 0.00 0.00 0.18 32 1010.1
20260506071407 10 90 8.0 14.5 0.00 0.00 0.18 35 1010.2
20260506070902 10 135 9.7 16.1 0.00 0.00 0.18 37 1010.2
20260506070357 10 90 6.4 9.7 0.00 0.00 0.15 41 1010.2
20260506062315 8 76 8.0 14.5 0.00 0.00 0.10 49 1010.4
20260506061810 8 90 4.8 9.7 0.00 0.00 0.10 53 1010.3
20260506061305 8 90 1.6 4.8 0.00 0.00 0.08 56 1010.3
20260506060800 8 99 3.2 3.2 0.00 0.00 0.08 57 1010.3
20260506060254 7 45 1.6 4.8 0.00 0.00 0.08 59 1010.3
20260506051203 2 45 3.2 3.2 0.00 0.00 0.08 75 1010.3
20260506050657 2 0 1.6 4.8 0.00 0.00 0.08 76 1010.3
20260506050152 1 0 4.8 6.4 0.00 0.00 0.05 77 1010.4
20260506044636 -1 0 1.6 3.2 0.00 0.00 0.05 76 1010.4
20260506044131 -2 45 0.0 4.8 0.00 0.00 0.05 75 1010.3
20260506043626 -3 45 1.6 3.2 0.00 0.00 0.05 75 1010.3
20260506043121 -3 85 1.6 4.8 0.00 0.00 0.05 75 1010.4
20260506042616 -3 45 1.6 3.2 0.00 0.00 0.05 75 1010.4
20260506042110 -3 45 8.0 8.0 0.00 0.00 0.05 74 1010.3
20260506041605 -3 45 1.6 3.2 0.00 0.00 0.05 75 1010.3
20260506041100 -3 45 1.6 4.8 0.00 0.00 0.05 74 1010.3
20260506040555 -4 45 3.2 4.8 0.00 0.00 0.05 74 1010.2
20260506040050 -4 45 1.6 1.6 0.00 0.00 0.05 74 1010.2